This is the latest recevied weather packets stored in our database for station/object IN3MWE-10. If no packets are shown the sender has not sent any weather packets the latest 10 day(s).
| Time | Temp. | Humidity | Pressure | Rain* | Wind** | Luminosity | Snow |
|---|---|---|---|---|---|---|---|
| 1787858423 | 25° C | 84% | 981.7 hPa | - | - | - | - |
| 1787857523 | 25.56° C | 83% | 981.5 hPa | - | - | - | - |
| 1787856623 | 25.56° C | 84% | 981.5 hPa | - | - | - | - |
| 1787855722 | 25.56° C | 82% | 981.4 hPa | - | - | - | - |
| 1787854822 | 26.11° C | 77% | 981 hPa | - | - | - | - |
| 1787853922 | 26.11° C | 78% | 981 hPa | - | - | - | - |
| 1787853022 | 26.67° C | 77% | 980.8 hPa | - | - | - | - |
| 1787852122 | 27.22° C | 74% | 980.9 hPa | - | - | - | - |
| 1787851222 | 27.78° C | 70% | 980.7 hPa | - | - | - | - |
| 1787850322 | 28.33° C | 69% | 980.5 hPa | - | - | - | - |
| 1787849421 | 28.89° C | 69% | 980.5 hPa | - | - | - | - |
| 1787848521 | 29.44° C | 67% | 980.3 hPa | - | - | - | - |
| 1787847621 | 30° C | 65% | 980.3 hPa | - | - | - | - |
| 1787846721 | 31.67° C | 56% | 980.2 hPa | - | - | - | - |
| 1787845821 | 32.22° C | 52% | 980.3 hPa | - | - | - | - |
| 1787844921 | 32.78° C | 49% | 980.3 hPa | - | - | - | - |
| 1787844021 | 34.44° C | 42% | 980.3 hPa | - | - | - | - |
| 1787843120 | 34.44° C | 43% | 980.3 hPa | - | - | - | - |
| 1787842220 | 35.56° C | 38% | 980.3 hPa | - | - | - | - |
| 1787841320 | 35° C | 39% | 980.4 hPa | - | - | - | - |
| 1787840420 | 33.89° C | 42% | 980.3 hPa | - | - | - | - |
| 1787839520 | 35° C | 37% | 980.3 hPa | - | - | - | - |
| 1787838620 | 33.89° C | 46% | 980.4 hPa | - | - | - | - |
| 1787837720 | 31.67° C | 48% | 980.5 hPa | - | - | - | - |
| 1787836819 | 34.44° C | 40% | 980.5 hPa | - | - | - | - |
* Rain since midnight (hover to see other rain measurements)
** Current wind speed in m/s (hover to see current wind gust speed)